Middletown, OH

2:40 PM EDT on April 23, 2017 (GMT -0400)
Hook Field Municipal

Weather History for KMWO - September, 2013

Change the Weather History Date:

Tuesday, September 17, 2013

  Actual Average (KFFO) Record (KFFO)
Temperature  
Mean Temperature 62 °F -  
Max Temperature 75 °F 74 °F 82 °F (2006)
Min Temperature 50 °F 51 °F 42 °F (2000)
Degree Days  
Heating Degree Days 2    
Growing Degree Days 12 (Base 50)    
Moisture  
Dew Point 48 °F    
Average Humidity 65    
Maximum Humidity 85    
Minimum Humidity 31    
Precipitation  
Precipitation 0.00 in - - ()
Sea Level Pressure  
Sea Level Pressure 30.29 in    
Wind  
Wind Speed 5 mph (NE)    
Max Wind Speed 12 mph    
Max Gust Speed 17 mph    
Visibility 10 miles    
Events      
Averages and records for this station are not official NWS values.
T = Trace of Precipitation, MM = Missing Value Source: NWS Daily Summary

Daily Weather History Graph

Daily Weather History Graph

Search for Another Location

Airport or City:

Trip Planner

Search our weather history database for the weather conditions in past years. The results will help you decide how hot, cold, wet, or windy it might be!

Date:

Astronomy

Sep. 17, 2013 Rise Set
Actual Time 7:20 AM EDT 7:42 PM EDT
Civil Twilight 6:53 AM EDT 8:09 PM EDT
Nautical Twilight 6:22 AM EDT 8:40 PM EDT
Astronomical Twilight 5:49 AM EDT 9:13 PM EDT
Moon 6:28 PM EDT (9/17) 5:14 AM EDT (9/17)
Length of Visible Light 13h 15m
Length of Day
12h 21m
Waxing Gibbous, 96% of the Moon is Illuminated
Sep 17
Waxing Gibbous
Sep 19
Full
Sep 26
Last Quarter
Oct 4
New
Oct 11
First Quarter

Hourly Weather History & Observations

Time (EDT) Temp. Dew Point Humidity Pressure Visibility Wind Dir Wind Speed Gust Speed Precip Events Conditions
12:15 AM 55.4 °F 48.7 °F 78% 30.32 in 10.0 mi NNE 5.8 mph - N/A   Clear
12:35 AM 55.4 °F 49.3 °F 80% 30.32 in 10.0 mi NE 5.8 mph - N/A   Clear
12:55 AM 55.4 °F 48.6 °F 78% 30.33 in 10.0 mi NNE 4.6 mph - N/A   Clear
1:15 AM 55.4 °F 48.6 °F 78% 30.34 in 10.0 mi Calm Calm - N/A   Clear
1:35 AM 55.4 °F 48.6 °F 78% 30.34 in 10.0 mi North 3.5 mph - N/A   Clear
1:55 AM 55.4 °F 48.7 °F 78% 30.34 in 10.0 mi NNE 3.5 mph - N/A   Clear
2:15 AM 53.8 °F 47.7 °F 80% 30.34 in 10.0 mi NNE 4.6 mph - N/A   Clear
2:35 AM 52.7 °F 46.9 °F 81% 30.34 in 10.0 mi NNE 4.6 mph - N/A   Clear
2:55 AM 52.7 °F 47.3 °F 82% 30.35 in 10.0 mi NNE 4.6 mph - N/A   Clear
3:15 AM 52.7 °F 47.3 °F 82% 30.35 in 10.0 mi NNE 3.5 mph - N/A   Clear
3:35 AM 52.7 °F 47.3 °F 82% 30.34 in 10.0 mi NNE 4.6 mph - N/A   Clear
3:55 AM 52.7 °F 47.5 °F 82% 30.34 in 10.0 mi NNE 4.6 mph - N/A   Clear
4:15 AM 52.7 °F 47.5 °F 82% 30.34 in 10.0 mi NNE 3.5 mph - N/A   Clear
4:35 AM 52.7 °F 47.5 °F 82% 30.34 in 10.0 mi North 3.5 mph - N/A   Clear
4:55 AM 52.7 °F 47.8 °F 84% 30.34 in 10.0 mi NNE 4.6 mph - N/A   Clear
5:15 AM 52.7 °F 48.2 °F 85% 30.34 in 10.0 mi NNE 3.5 mph - N/A   Clear
5:35 AM 52.7 °F 48.2 °F 85% 30.34 in 10.0 mi NNE 4.6 mph - N/A   Clear
5:55 AM 52.7 °F 48.2 °F 85% 30.34 in 10.0 mi NNE 5.8 mph - N/A   Clear
6:15 AM 52.2 °F 47.5 °F 84% 30.34 in 10.0 mi NNE 4.6 mph - N/A   Clear
6:35 AM 50.7 °F 46.0 °F 84% 30.33 in 10.0 mi NNE 5.8 mph - N/A   Clear
6:55 AM 50.2 °F 45.5 °F 84% 30.33 in 10.0 mi NNE 4.6 mph - N/A   Clear
7:15 AM 50.4 °F 45.7 °F 84% 30.34 in 10.0 mi Calm Calm - N/A   Clear
7:35 AM 50.2 °F 45.7 °F 85% 30.34 in 10.0 mi NNE 3.5 mph - N/A   Clear
7:55 AM 50.2 °F 45.9 °F 85% 30.34 in 10.0 mi NNE 4.6 mph - N/A   Clear
8:15 AM 52.7 °F 48.0 °F 84% 30.35 in 10.0 mi NNE 4.6 mph - N/A   Clear
8:35 AM 52.7 °F 46.9 °F 81% 30.35 in 10.0 mi NE 4.6 mph - N/A   Clear
8:55 AM 55.4 °F 48.7 °F 78% 30.35 in 10.0 mi Calm Calm - N/A   Clear
9:15 AM 55.4 °F 47.8 °F 76% 30.35 in 10.0 mi ENE 4.6 mph - N/A   Clear
9:35 AM 57.7 °F 48.9 °F 72% 30.35 in 10.0 mi ENE 4.6 mph - N/A   Clear
9:55 AM 59.0 °F 48.2 °F 67% 30.35 in 10.0 mi East 5.8 mph - N/A   Clear
10:15 AM 59.9 °F 48.6 °F 66% 30.36 in 10.0 mi ENE 4.6 mph - N/A   Clear
10:35 AM 61.3 °F 48.2 °F 62% 30.36 in 10.0 mi ESE 5.8 mph - N/A   Clear
10:55 AM 62.6 °F 48.2 °F 59% 30.35 in 10.0 mi ENE 5.8 mph - N/A   Clear
11:15 AM 66.4 °F 50.4 °F 56% 30.35 in 10.0 mi SE 4.6 mph - N/A   Clear
11:35 AM 67.6 °F 50.2 °F 54% 30.35 in 10.0 mi ESE 5.8 mph - N/A   Clear
11:55 AM 67.6 °F 49.6 °F 52% 30.34 in 10.0 mi East 6.9 mph - N/A   Clear
12:15 PM 68.0 °F 48.9 °F 50% 30.33 in 10.0 mi ENE 9.2 mph - N/A   Clear
12:35 PM 70.2 °F 49.3 °F 47% 30.33 in 10.0 mi ENE 6.9 mph - N/A   Clear
12:55 PM 72.5 °F 50.2 °F 45% 30.32 in 10.0 mi East 8.1 mph - N/A   Clear
1:15 PM 72.7 °F 50.0 °F 45% 30.31 in 10.0 mi East 9.2 mph - N/A   Clear
1:35 PM 72.7 °F 48.0 °F 42% 30.30 in 10.0 mi ENE 8.1 mph - N/A   Clear
1:55 PM 72.7 °F 48.0 °F 42% 30.29 in 10.0 mi SSE 3.5 mph - N/A   Clear
2:15 PM 72.7 °F 48.6 °F 42% 30.28 in 10.0 mi Calm Calm - N/A   Clear
2:35 PM 72.7 °F 48.4 °F 42% 30.26 in 10.0 mi NE 9.2 mph - N/A   Clear
2:55 PM 72.7 °F 48.4 °F 42% 30.25 in 10.0 mi ENE 8.1 mph - N/A   Clear
3:15 PM 72.7 °F 47.1 °F 40% 30.25 in 10.0 mi ENE 8.1 mph - N/A   Clear
3:35 PM 72.7 °F 47.3 °F 40% 30.24 in 10.0 mi ENE 5.8 mph - N/A   Clear
3:55 PM 74.1 °F 45.9 °F 36% 30.23 in 10.0 mi East 9.2 mph - N/A   Clear
4:15 PM 75.2 °F 44.4 °F 33% 30.22 in 10.0 mi East 11.5 mph - N/A   Clear
4:35 PM 75.2 °F 43.2 °F 32% 30.22 in 10.0 mi East 8.1 mph 17.3 mph N/A   Clear
4:55 PM 75.2 °F 44.2 °F 33% 30.22 in 10.0 mi ESE 8.1 mph - N/A   Clear
5:15 PM 75.2 °F 42.6 °F 31% 30.21 in 10.0 mi ENE 3.5 mph - N/A   Clear
5:35 PM 75.2 °F 44.2 °F 33% 30.21 in 10.0 mi East 4.6 mph - N/A   Clear
5:55 PM 72.7 °F 42.8 °F 34% 30.21 in 10.0 mi SE 6.9 mph - N/A   Clear
6:15 PM 72.7 °F 42.8 °F 34% 30.20 in 10.0 mi ENE 8.1 mph - N/A   Clear
6:35 PM 72.7 °F 43.9 °F 36% 30.20 in 10.0 mi NE 6.9 mph - N/A   Clear
6:55 PM 72.7 °F 45.1 °F 37% 30.20 in 10.0 mi SE 5.8 mph - N/A   Clear
7:15 PM 72.7 °F 47.5 °F 41% 30.20 in 10.0 mi SSE 4.6 mph - N/A   Clear
7:35 PM 70.2 °F 46.9 °F 43% 30.20 in 10.0 mi ESE 4.6 mph - N/A   Clear
7:55 PM 67.6 °F 47.5 °F 48% 30.20 in 10.0 mi East 3.5 mph - N/A   Clear
8:15 PM 63.7 °F 52.2 °F 66% 30.20 in 10.0 mi Calm Calm - N/A   Clear
8:35 PM 60.1 °F 52.9 °F 77% 30.20 in 10.0 mi Calm Calm - N/A   Clear
8:55 PM 59.0 °F 52.2 °F 78% 30.20 in 10.0 mi Calm Calm - N/A   Clear
9:15 PM 57.9 °F 51.6 °F 80% 30.21 in 10.0 mi North 3.5 mph - N/A   Clear
9:35 PM 57.7 °F 51.8 °F 81% 30.21 in 10.0 mi Calm Calm - N/A   Clear
9:55 PM 57.7 °F 52.7 °F 83% 30.21 in 10.0 mi Calm Calm - N/A   Clear
10:15 PM 57.7 °F 52.0 °F 81% 30.20 in 10.0 mi Calm Calm - N/A   Clear
10:35 PM 57.7 °F 52.0 °F 81% 30.21 in 10.0 mi Calm Calm - N/A   Clear
10:55 PM 57.7 °F 52.2 °F 82% 30.20 in 10.0 mi Calm Calm - N/A   Clear
11:15 PM 57.2 °F 52.2 °F 83% 30.20 in 10.0 mi Calm Calm - N/A   Clear
11:35 PM 57.7 °F 52.5 °F 83% 30.20 in 10.0 mi North 4.6 mph - N/A   Clear
11:55 PM 57.7 °F 52.2 °F 82% 30.20 in 10.0 mi North 4.6 mph - N/A   Clear